Location: Goll?ig?dem
(16.6773°N, 80.7332°E)
Time: 07:23:17
(UTC+00:00)

Cosmos 2058 Rocket - Pass Details

Date: 21 April 2021
Orbit: 610 x 639 km, 82.5° (Epoch: 05 May)

Event Time Altitude Azimuth Distance (km) Brightness Sun altitude
Rises 13:11:37 0° 157° (SSE) 2,874 6.1 -4.9°
Reaches altitude 10° 13:14:14 10° 142° (SE) 1,966 5.2 -5.5°
Maximum altitude 13:17:36 22° 91° (E) 1,340 4.2 -6.3°
Drops below altitude 10° 13:20:57 10° 40° (NE) 1,961 5.4 -7.1°
Sets 13:23:33 0° 25° (NNE) 2,865 6.4 -7.7°
